����������;��������(kWh)
2018-06-25 00:00;96,05
2018-06-25 00:15;91,3
2018-06-25 00:30;88,2
2018-06-25 00:45;88,25
2018-06-25 01:00;86,9
2018-06-25 01:15;86,3
2018-06-25 01:30;86,05
2018-06-25 01:45;85,35
2018-06-25 02:00;84,6
2018-06-25 02:15;86,35
2018-06-25 02:30;84,3
2018-06-25 02:45;84,75
2018-06-25 03:00;85,2
2018-06-25 03:15;83,45
2018-06-25 03:30;85,5
2018-06-25 03:45;85,25
2018-06-25 04:00;85,8
2018-06-25 04:15;84,8
2018-06-25 04:30;86,6
2018-06-25 04:45;84,6
2018-06-25 05:00;85,8
2018-06-25 05:15;84
2018-06-25 05:30;85,2
2018-06-25 05:45;87,7
2018-06-25 06:00;85,65
2018-06-25 06:15;83,7
2018-06-25 06:30;106
2018-06-25 06:45;111,3
2018-06-25 07:00;107,25
2018-06-25 07:15;102,3
2018-06-25 07:30;105,85
2018-06-25 07:45;167,35
2018-06-25 08:00;179,65
2018-06-25 08:15;167,85
2018-06-25 08:30;152,35
2018-06-25 08:45;157,85
2018-06-25 09:00;172,55
2018-06-25 09:15;180
2018-06-25 09:30;183,45
2018-06-25 09:45;198,4
2018-06-25 10:00;204,55
2018-06-25 10:15;197,15
2018-06-25 10:30;196,9
2018-06-25 10:45;209,45
2018-06-25 11:00;219,25
2018-06-25 11:15;223,45
2018-06-25 11:30;230,3
2018-06-25 11:45;226,9
2018-06-25 12:00;232,55
2018-06-25 12:15;230,75
2018-06-25 12:30;219,45
2018-06-25 12:45;225,45
2018-06-25 13:00;240,65
2018-06-25 13:15;238,1
2018-06-25 13:30;232,05
2018-06-25 13:45;234,75
2018-06-25 14:00;242,4
2018-06-25 14:15;239,9
2018-06-25 14:30;229,5
2018-06-25 14:45;230,5
2018-06-25 15:00;230,45
2018-06-25 15:15;228,85
2018-06-25 15:30;225
2018-06-25 15:45;217,75
2018-06-25 16:00;204,2
2018-06-25 16:15;206,95
2018-06-25 16:30;197,9
2018-06-25 16:45;194,1
2018-06-25 17:00;181,95
2018-06-25 17:15;188,75
2018-06-25 17:30;189
2018-06-25 17:45;178,95
2018-06-25 18:00;179,5
2018-06-25 18:15;160,85
2018-06-25 18:30;161,2
2018-06-25 18:45;160,35
2018-06-25 19:00;155,4
2018-06-25 19:15;147,45
2018-06-25 19:30;148,35
2018-06-25 19:45;142,15
2018-06-25 20:00;130
2018-06-25 20:15;120,9
2018-06-25 20:30;118,25
2018-06-25 20:45;121
2018-06-25 21:00;120,7
2018-06-25 21:15;121
2018-06-25 21:30;116,2
2018-06-25 21:45;112
2018-06-25 22:00;114,15
2018-06-25 22:15;113,9
2018-06-25 22:30;113,2
2018-06-25 22:45;113
2018-06-25 23:00;114,15
2018-06-25 23:15;105,6
2018-06-25 23:30;104,95
2018-06-25 23:45;104,55
2018-06-26 00:00;101
2018-06-26 00:15;100,2
2018-06-26 00:30;99,25
2018-06-26 00:45;96,3
2018-06-26 01:00;91,2
2018-06-26 01:15;88,6
2018-06-26 01:30;88,4
2018-06-26 01:45;86,55
2018-06-26 02:00;85,25
2018-06-26 02:15;86,85
2018-06-26 02:30;85,45
2018-06-26 02:45;85,3
2018-06-26 03:00;87,15
2018-06-26 03:15;84,35
2018-06-26 03:30;86,9
2018-06-26 03:45;87
2018-06-26 04:00;87,7
2018-06-26 04:15;85
2018-06-26 04:30;88,85
2018-06-26 04:45;87,05
2018-06-26 05:00;88
2018-06-26 05:15;87,2
2018-06-26 05:30;86,45
2018-06-26 05:45;88,45
2018-06-26 06:00;90,2
2018-06-26 06:15;85,6
2018-06-26 06:30;95,15
2018-06-26 06:45;111,65
2018-06-26 07:00;112,4
2018-06-26 07:15;104,9
2018-06-26 07:30;103,9
2018-06-26 07:45;160,05
2018-06-26 08:00;158,75
2018-06-26 08:15;133,5
2018-06-26 08:30;158,9
2018-06-26 08:45;177,85
2018-06-26 09:00;179,2
2018-06-26 09:15;190,55
2018-06-26 09:30;198,75
2018-06-26 09:45;194,55
2018-06-26 10:00;196,1
2018-06-26 10:15;205
2018-06-26 10:30;216,45
2018-06-26 10:45;207,05
2018-06-26 11:00;211,4
2018-06-26 11:15;223,15
2018-06-26 11:30;238,6
2018-06-26 11:45;228
2018-06-26 12:00;231,1
2018-06-26 12:15;243
2018-06-26 12:30;241,5
2018-06-26 12:45;239,3
2018-06-26 13:00;259,75
2018-06-26 13:15;257,95
2018-06-26 13:30;246,1
2018-06-26 13:45;248,15
2018-06-26 14:00;250,55
2018-06-26 14:15;237,65
2018-06-26 14:30;234,1
2018-06-26 14:45;230,8
2018-06-26 15:00;232,8
2018-06-26 15:15;225,3
2018-06-26 15:30;220,4
2018-06-26 15:45;229,65
2018-06-26 16:00;225,25
2018-06-26 16:15;217,2
2018-06-26 16:30;214,95
2018-06-26 16:45;203,15
2018-06-26 17:00;197,3
2018-06-26 17:15;182,75
2018-06-26 17:30;185
2018-06-26 17:45;184,45
2018-06-26 18:00;176,25
2018-06-26 18:15;166,35
2018-06-26 18:30;160,1
2018-06-26 18:45;155,15
2018-06-26 19:00;154,75
2018-06-26 19:15;149,5
2018-06-26 19:30;150,05
2018-06-26 19:45;151,4
2018-06-26 20:00;141,5
2018-06-26 20:15;132,2
2018-06-26 20:30;133,1
2018-06-26 20:45;129,65
2018-06-26 21:00;126,85
2018-06-26 21:15;122,45
2018-06-26 21:30;124,55
2018-06-26 21:45;122,35
2018-06-26 22:00;118,95
2018-06-26 22:15;105,5
2018-06-26 22:30;102,75
2018-06-26 22:45;106,25
2018-06-26 23:00;105,85
2018-06-26 23:15;106,35
2018-06-26 23:30;103,15
2018-06-26 23:45;104,05
2018-06-27 00:00;101,7
2018-06-27 00:15;93,3
2018-06-27 00:30;97,05
2018-06-27 00:45;96,05
2018-06-27 01:00;94,1
2018-06-27 01:15;94,65
2018-06-27 01:30;86
2018-06-27 01:45;86
2018-06-27 02:00;85,5
2018-06-27 02:15;83,9
2018-06-27 02:30;86,2
2018-06-27 02:45;84,25
2018-06-27 03:00;84,85
2018-06-27 03:15;86,45
2018-06-27 03:30;84,15
2018-06-27 03:45;85,6
2018-06-27 04:00;86,2
2018-06-27 04:15;85,65
2018-06-27 04:30;84,9
2018-06-27 04:45;85,5
2018-06-27 05:00;85
2018-06-27 05:15;85,15
2018-06-27 05:30;87,45
2018-06-27 05:45;95,1
2018-06-27 06:00;93,75
2018-06-27 06:15;92,5
2018-06-27 06:30;91,1
2018-06-27 06:45;90,75
2018-06-27 07:00;93,05
2018-06-27 07:15;119,25
2018-06-27 07:30;116,85
2018-06-27 07:45;166,2
2018-06-27 08:00;164,65
2018-06-27 08:15;136,25
2018-06-27 08:30;131,2
2018-06-27 08:45;142
2018-06-27 09:00;155,15
2018-06-27 09:15;160,25
2018-06-27 09:30;157,65
2018-06-27 09:45;179,4
2018-06-27 10:00;189,25
2018-06-27 10:15;182,9
2018-06-27 10:30;204,2
2018-06-27 10:45;213,15
2018-06-27 11:00;224,9
2018-06-27 11:15;217,85
2018-06-27 11:30;223,35
2018-06-27 11:45;234,05
2018-06-27 12:00;233,3
2018-06-27 12:15;226,7
2018-06-27 12:30;232,4
2018-06-27 12:45;217,6
2018-06-27 13:00;232,25
2018-06-27 13:15;241,2
2018-06-27 13:30;240,65
2018-06-27 13:45;249,2
2018-06-27 14:00;225
2018-06-27 14:15;224,15
2018-06-27 14:30;232,55
2018-06-27 14:45;214,55
2018-06-27 15:00;224,6
2018-06-27 15:15;222,4
2018-06-27 15:30;204,75
2018-06-27 15:45;213,3
2018-06-27 16:00;201,2
2018-06-27 16:15;211,9
2018-06-27 16:30;193,9
2018-06-27 16:45;199,75
2018-06-27 17:00;186,2
2018-06-27 17:15;183,25
2018-06-27 17:30;168,9
2018-06-27 17:45;175,6
2018-06-27 18:00;161,4
2018-06-27 18:15;163,2
2018-06-27 18:30;150,75
2018-06-27 18:45;147,2
2018-06-27 19:00;142,1
2018-06-27 19:15;128,75
2018-06-27 19:30;125,6
2018-06-27 19:45;126,75
2018-06-27 20:00;125,3
2018-06-27 20:15;117,4
2018-06-27 20:30;118,2
2018-06-27 20:45;124,4
2018-06-27 21:00;116,6
2018-06-27 21:15;119,05
2018-06-27 21:30;111,35
2018-06-27 21:45;105,05
2018-06-27 22:00;100,3
2018-06-27 22:15;98,8
2018-06-27 22:30;99,25
2018-06-27 22:45;97,85
2018-06-27 23:00;99
2018-06-27 23:15;95
2018-06-27 23:30;93,85
2018-06-27 23:45;96,95
2018-06-28 00:00;91,65
2018-06-28 00:15;91,15
2018-06-28 00:30;90,55
2018-06-28 00:45;89,8
2018-06-28 01:00;90,05
2018-06-28 01:15;86,9
2018-06-28 01:30;87,5
2018-06-28 01:45;88,1
2018-06-28 02:00;85,95
2018-06-28 02:15;86,9
2018-06-28 02:30;86,25
2018-06-28 02:45;85,35
2018-06-28 03:00;88,15
2018-06-28 03:15;85,6
2018-06-28 03:30;86,4
2018-06-28 03:45;87,65
2018-06-28 04:00;86,95
2018-06-28 04:15;86,65
2018-06-28 04:30;87,3
2018-06-28 04:45;86,9
2018-06-28 05:00;87,4
2018-06-28 05:15;86,5
2018-06-28 05:30;86,75
2018-06-28 05:45;91
2018-06-28 06:00;99,05
2018-06-28 06:15;96,75
2018-06-28 06:30;94,75
2018-06-28 06:45;94,95
2018-06-28 07:00;95,55
2018-06-28 07:15;95,25
2018-06-28 07:30;109,8
2018-06-28 07:45;179,7
2018-06-28 08:00;171,65
2018-06-28 08:15;120,45
2018-06-28 08:30;134,7
2018-06-28 08:45;133
2018-06-28 09:00;145,75
2018-06-28 09:15;153,65
2018-06-28 09:30;159,2
2018-06-28 09:45;171,6
2018-06-28 10:00;168,4
2018-06-28 10:15;184,95
2018-06-28 10:30;176,15
2018-06-28 10:45;193
2018-06-28 11:00;186,2
2018-06-28 11:15;203,95
2018-06-28 11:30;203,1
2018-06-28 11:45;220,7
2018-06-28 12:00;210,25
2018-06-28 12:15;220
2018-06-28 12:30;211,4
2018-06-28 12:45;225,8
2018-06-28 13:00;217,7
2018-06-28 13:15;212,3
2018-06-28 13:30;222,2
2018-06-28 13:45;216,7
2018-06-28 14:00;211,2
2018-06-28 14:15;217,7
2018-06-28 14:30;217
2018-06-28 14:45;204,15
2018-06-28 15:00;212
2018-06-28 15:15;201,55
2018-06-28 15:30;196,6
2018-06-28 15:45;194,75
2018-06-28 16:00;189,95
2018-06-28 16:15;184,25
2018-06-28 16:30;177,1
2018-06-28 16:45;175,9
2018-06-28 17:00;170,3
2018-06-28 17:15;161,7
2018-06-28 17:30;167,45
2018-06-28 17:45;160,55
2018-06-28 18:00;145,15
2018-06-28 18:15;151,3
2018-06-28 18:30;144,65
2018-06-28 18:45;139,6
2018-06-28 19:00;138,25
2018-06-28 19:15;135,45
2018-06-28 19:30;134,5
2018-06-28 19:45;131,25
2018-06-28 20:00;126,3
2018-06-28 20:15;123,85
2018-06-28 20:30;122,6
2018-06-28 20:45;121,9
2018-06-28 21:00;124,3
2018-06-28 21:15;114,45
2018-06-28 21:30;113,05
2018-06-28 21:45;110,75
2018-06-28 22:00;108,1
2018-06-28 22:15;105,45
2018-06-28 22:30;103,45
2018-06-28 22:45;104,2
2018-06-28 23:00;91,05
2018-06-28 23:15;88,95
2018-06-28 23:30;92,9
2018-06-28 23:45;96,45
2018-06-29 00:00;94,6
2018-06-29 00:15;97,35
2018-06-29 00:30;91,85
2018-06-29 00:45;87,9
2018-06-29 01:00;86,55
2018-06-29 01:15;84,8
2018-06-29 01:30;85,15
2018-06-29 01:45;83,95
2018-06-29 02:00;83,2
2018-06-29 02:15;84,05
2018-06-29 02:30;82,15
2018-06-29 02:45;82,4
2018-06-29 03:00;82,8
2018-06-29 03:15;82,25
2018-06-29 03:30;83
2018-06-29 03:45;82,75
2018-06-29 04:00;83,5
2018-06-29 04:15;83,05
2018-06-29 04:30;91,2
2018-06-29 04:45;106,75
2018-06-29 05:00;101,7
2018-06-29 05:15;96,6
2018-06-29 05:30;93,35
2018-06-29 05:45;95,55
2018-06-29 06:00;92,5
2018-06-29 06:15;94,6
2018-06-29 06:30;101,6
2018-06-29 06:45;99,8
2018-06-29 07:00;101
2018-06-29 07:15;103,6
2018-06-29 07:30;107,05
2018-06-29 07:45;154,8
2018-06-29 08:00;116,75
2018-06-29 08:15;118,85
2018-06-29 08:30;127,2
2018-06-29 08:45;132,55
2018-06-29 09:00;139,45
2018-06-29 09:15;150,45
2018-06-29 09:30;147,95
2018-06-29 09:45;149,5
2018-06-29 10:00;165,15
2018-06-29 10:15;164,35
2018-06-29 10:30;164,8
2018-06-29 10:45;178,3
2018-06-29 11:00;180,7
2018-06-29 11:15;173,4
2018-06-29 11:30;191,55
2018-06-29 11:45;190,8
2018-06-29 12:00;186,45
2018-06-29 12:15;199,7
2018-06-29 12:30;234,3
2018-06-29 12:45;219,2
2018-06-29 13:00;202,2
2018-06-29 13:15;202,1
2018-06-29 13:30;209,75
2018-06-29 13:45;213,1
2018-06-29 14:00;202,65
2018-06-29 14:15;203
2018-06-29 14:30;193,4
2018-06-29 14:45;197,45
2018-06-29 15:00;198,55
2018-06-29 15:15;183,7
2018-06-29 15:30;194,75
2018-06-29 15:45;186,1
2018-06-29 16:00;175,55
2018-06-29 16:15;173
2018-06-29 16:30;169,95
2018-06-29 16:45;154,7
2018-06-29 17:00;159
2018-06-29 17:15;154,05
2018-06-29 17:30;145,25
2018-06-29 17:45;146,7
2018-06-29 18:00;145,2
2018-06-29 18:15;138,5
2018-06-29 18:30;147,4
2018-06-29 18:45;135,85
2018-06-29 19:00;134,25
2018-06-29 19:15;130
2018-06-29 19:30;133,4
2018-06-29 19:45;132,15
2018-06-29 20:00;130,1
2018-06-29 20:15;126,9
2018-06-29 20:30;123,15
2018-06-29 20:45;124,05
2018-06-29 21:00;123,6
2018-06-29 21:15;123,55
2018-06-29 21:30;119,15
2018-06-29 21:45;116,85
2018-06-29 22:00;112,5
2018-06-29 22:15;110,4
2018-06-29 22:30;106,5
2018-06-29 22:45;99,3
2018-06-29 23:00;98,95
2018-06-29 23:15;97,8
2018-06-29 23:30;90,3
2018-06-29 23:45;86,1
2018-06-30 00:00;85,25
2018-06-30 00:15;83,4
2018-06-30 00:30;85
2018-06-30 00:45;83,9
2018-06-30 01:00;84,1
2018-06-30 01:15;84,05
2018-06-30 01:30;81
2018-06-30 01:45;81,3
2018-06-30 02:00;82,05
2018-06-30 02:15;79,65
2018-06-30 02:30;80,3
2018-06-30 02:45;81,3
2018-06-30 03:00;81,3
2018-06-30 03:15;86,65
2018-06-30 03:30;87,1
2018-06-30 03:45;88,2
2018-06-30 04:00;88,8
2018-06-30 04:15;88
2018-06-30 04:30;83,15
2018-06-30 04:45;83,4
2018-06-30 05:00;80,75
2018-06-30 05:15;82,45
2018-06-30 05:30;81,3
2018-06-30 05:45;81,05
2018-06-30 06:00;81,1
2018-06-30 06:15;76,7
2018-06-30 06:30;79,8
2018-06-30 06:45;79,95
2018-06-30 07:00;80
2018-06-30 07:15;77,7
2018-06-30 07:30;77,15
2018-06-30 07:45;75,55
2018-06-30 08:00;73,85
2018-06-30 08:15;77,05
2018-06-30 08:30;79,05
2018-06-30 08:45;79,35
2018-06-30 09:00;78,05
2018-06-30 09:15;80,3
2018-06-30 09:30;80
2018-06-30 09:45;80,05
2018-06-30 10:00;84,9
2018-06-30 10:15;82,85
2018-06-30 10:30;85,35
2018-06-30 10:45;84,8
2018-06-30 11:00;84,75
2018-06-30 11:15;84
2018-06-30 11:30;84,2
2018-06-30 11:45;84,85
2018-06-30 12:00;83,1
2018-06-30 12:15;82,5
2018-06-30 12:30;85,05
2018-06-30 12:45;84,15
2018-06-30 13:00;87,1
2018-06-30 13:15;87,8
2018-06-30 13:30;90,2
2018-06-30 13:45;90,7
2018-06-30 14:00;84,1
2018-06-30 14:15;85,05
2018-06-30 14:30;84,5
2018-06-30 14:45;86,1
2018-06-30 15:00;86,75
2018-06-30 15:15;90,05
2018-06-30 15:30;87,85
2018-06-30 15:45;88,85
2018-06-30 16:00;88,45
2018-06-30 16:15;89,25
2018-06-30 16:30;88,25
2018-06-30 16:45;90,3
2018-06-30 17:00;92,45
2018-06-30 17:15;89,65
2018-06-30 17:30;88,35
2018-06-30 17:45;91,7
2018-06-30 18:00;97,3
2018-06-30 18:15;93,4
2018-06-30 18:30;96
2018-06-30 18:45;92,9
2018-06-30 19:00;92,1
2018-06-30 19:15;90,35
2018-06-30 19:30;89,5
2018-06-30 19:45;91,6
2018-06-30 20:00;95,25
2018-06-30 20:15;92,3
2018-06-30 20:30;88,15
2018-06-30 20:45;94,5
2018-06-30 21:00;90,85
2018-06-30 21:15;93,6
2018-06-30 21:30;94,4
2018-06-30 21:45;95,95
2018-06-30 22:00;91,55
2018-06-30 22:15;90,25
2018-06-30 22:30;91,35
2018-06-30 22:45;89,05
2018-06-30 23:00;89,1
2018-06-30 23:15;88,7
2018-06-30 23:30;86,05
2018-06-30 23:45;87,85
2018-07-01 00:00;85,05
2018-07-01 00:15;85,4
2018-07-01 00:30;86,05
2018-07-01 00:45;85,75
2018-07-01 01:00;85,6
2018-07-01 01:15;85,1
2018-07-01 01:30;83,95
2018-07-01 01:45;84,5
2018-07-01 02:00;84,8
2018-07-01 02:15;83,55
2018-07-01 02:30;82,2
2018-07-01 02:45;84,45
2018-07-01 03:00;81,85
2018-07-01 03:15;81,7
2018-07-01 03:30;84,5
2018-07-01 03:45;83,75
2018-07-01 04:00;83,25
2018-07-01 04:15;83,75
2018-07-01 04:30;84,15
2018-07-01 04:45;84,4
2018-07-01 05:00;83,6
2018-07-01 05:15;85,05
2018-07-01 05:30;83,65
2018-07-01 05:45;85,2
2018-07-01 06:00;86,45
2018-07-01 06:15;83,05
2018-07-01 06:30;82,5
2018-07-01 06:45;82
2018-07-01 07:00;80,5
2018-07-01 07:15;79,75
2018-07-01 07:30;77,55
2018-07-01 07:45;78,5
2018-07-01 08:00;77,5
2018-07-01 08:15;80,75
2018-07-01 08:30;79,05
2018-07-01 08:45;79,75
2018-07-01 09:00;82,35
2018-07-01 09:15;80,2
2018-07-01 09:30;79,85
2018-07-01 09:45;82,85
2018-07-01 10:00;85,1
2018-07-01 10:15;83,6
2018-07-01 10:30;83,2
2018-07-01 10:45;83,75
2018-07-01 11:00;92,55
2018-07-01 11:15;90,15
2018-07-01 11:30;93,25
2018-07-01 11:45;92,6
2018-07-01 12:00;10,4
2018-07-01 12:15;0
2018-07-01 12:30;0
2018-07-01 12:45;85,85
2018-07-01 13:00;95,1
2018-07-01 13:15;95,85
2018-07-01 13:30;99,3
2018-07-01 13:45;94,3
2018-07-01 14:00;92,6
2018-07-01 14:15;92,9
2018-07-01 14:30;91,2
2018-07-01 14:45;91,45
2018-07-01 15:00;88,55
2018-07-01 15:15;88,8
2018-07-01 15:30;88,3
2018-07-01 15:45;90
2018-07-01 16:00;91,8
2018-07-01 16:15;89,5
2018-07-01 16:30;87,05
2018-07-01 16:45;88,65
2018-07-01 17:00;90,55
2018-07-01 17:15;89,45
2018-07-01 17:30;87
2018-07-01 17:45;86,05
2018-07-01 18:00;85,95
2018-07-01 18:15;85,9
2018-07-01 18:30;88,55
2018-07-01 18:45;85,25
2018-07-01 19:00;88,25
2018-07-01 19:15;88,6
2018-07-01 19:30;90,95
2018-07-01 19:45;90,4
2018-07-01 20:00;87,85
2018-07-01 20:15;87,55
2018-07-01 20:30;88,6
2018-07-01 20:45;90
2018-07-01 21:00;94,15
2018-07-01 21:15;93,4
2018-07-01 21:30;95,6
2018-07-01 21:45;92,05
2018-07-01 22:00;89,9
2018-07-01 22:15;89
2018-07-01 22:30;86,3
2018-07-01 22:45;86,7
2018-07-01 23:00;88,3
2018-07-01 23:15;85,1
2018-07-01 23:30;82,85
2018-07-01 23:45;86,1

